| time (UTC) | temp F | wind direction | speed knots | gust knots | rain 1hr in | rain 24hr in | rain mn in | humidity % | barometer mb |
| 20260505004937 | 54 | 103 | 1.7 | 2.6 | 0.00 | 0.00 | 0.00 | 56 | 1003.0 |
| 20260505003930 | 53 | 350 | 0.0 | 1.7 | 0.00 | 0.00 | 0.00 | 56 | 1002.9 |
| 20260505002906 | 53 | 322 | 5.2 | 9.6 | 0.00 | 0.00 | 0.00 | 56 | 1003.1 |
| 20260505001904 | 53 | 333 | 7.0 | 11.3 | 0.00 | 0.00 | 0.00 | 56 | 1003.4 |
| 20260505000903 | 54 | 319 | 7.8 | 13.9 | 0.00 | 0.00 | 0.00 | 53 | 1003.5 |
| 20260504235902 | 54 | 321 | 7.8 | 11.3 | 0.00 | 0.00 | 0.00 | 53 | 1003.8 |
| 20260504234902 | 55 | 312 | 8.7 | 12.2 | 0.00 | 0.00 | 0.00 | 52 | 1004.1 |
| 20260504233901 | 55 | 318 | 7.8 | 12.2 | 0.00 | 0.00 | 0.00 | 51 | 1004.5 |
| 20260504232856 | 56 | 306 | 6.1 | 12.2 | 0.00 | 0.00 | 0.00 | 49 | 1004.7 |
| 20260504231855 | 56 | 278 | 7.8 | 13.9 | 0.00 | 0.00 | 0.00 | 49 | 1005.0 |
| 20260504225855 | 57 | 218 | 12.2 | 21.7 | 0.00 | 0.00 | 0.00 | 47 | 1004.6 |
| 20260504224857 | 58 | 241 | 12.2 | 20.9 | 0.00 | 0.00 | 0.00 | 46 | 1005.0 |
| 20260504220845 | 61 | 160 | 6.1 | 12.2 | 0.00 | 0.00 | 0.00 | 42 | 1005.5 |
| 20260504215843 | 62 | 185 | 8.7 | 16.5 | 0.00 | 0.00 | 0.00 | 39 | 1005.6 |
| 20260504214842 | 62 | 185 | 5.2 | 11.3 | 0.00 | 0.00 | 0.00 | 38 | 1005.9 |
| 20260504213840 | 61 | 162 | 6.1 | 11.3 | 0.00 | 0.00 | 0.00 | 41 | 1005.6 |
| 20260504212840 | 61 | 151 | 7.0 | 11.3 | 0.00 | 0.00 | 0.00 | 42 | 1005.6 |
| 20260504211839 | 61 | 195 | 9.6 | 15.6 | 0.00 | 0.00 | 0.00 | 41 | 1005.5 |
| 20260504210839 | 62 | 156 | 10.4 | 19.1 | 0.00 | 0.00 | 0.00 | 39 | 1006.2 |
| 20260504204834 | 63 | 121 | 7.8 | 14.8 | 0.00 | 0.00 | 0.00 | 34 | 1006.5 |
| 20260504202831 | 65 | 346 | 5.2 | 11.3 | 0.00 | 0.00 | 0.00 | 33 | 1007.5 |
| 20260504201833 | 64 | 330 | 6.1 | 15.6 | 0.00 | 0.00 | 0.00 | 34 | 1007.5 |
| 20260504200830 | 64 | 39 | 7.8 | 14.8 | 0.00 | 0.00 | 0.00 | 36 | 1007.4 |
| 20260504193831 | 62 | 341 | 8.7 | 15.6 | 0.00 | 0.00 | 0.00 | 36 | 1006.8 |
| 20260504192831 | 62 | 320 | 7.0 | 13.0 | 0.00 | 0.00 | 0.00 | 35 | 1006.5 |
| 20260504191830 | 62 | 331 | 7.0 | 10.4 | 0.00 | 0.00 | 0.00 | 36 | 1006.4 |
| 20260504190829 | 62 | 281 | 5.2 | 9.6 | 0.00 | 0.00 | 0.00 | 34 | 1006.7 |
| 20260504185827 | 62 | 267 | 4.3 | 9.6 | 0.00 | 0.00 | 0.00 | 37 | 1006.8 |
| 20260504184825 | 62 | 255 | 3.5 | 8.7 | 0.00 | 0.00 | 0.00 | 37 | 1006.9 |
| 20260504182825 | 62 | 228 | 3.5 | 8.7 | 0.00 | 0.00 | 0.00 | 37 | 1007.0 |
| 20260504181824 | 63 | 226 | 3.5 | 5.2 | 0.00 | 0.00 | 0.00 | 36 | 1007.3 |
| 20260504180824 | 64 | 247 | 1.7 | 5.2 | 0.00 | 0.00 | 0.00 | 34 | 1007.8 |
| 20260504175822 | 63 | 151 | 1.7 | 3.5 | 0.00 | 0.00 | 0.00 | 33 | 1007.6 |
| 20260504173817 | 63 | 175 | 0.9 | 2.6 | 0.00 | 0.00 | 0.00 | 33 | 1007.9 |
| 20260504171801 | 65 | 197 | 2.6 | 4.3 | 0.00 | 0.00 | 0.00 | 33 | 1008.6 |
| 20260504170800 | 65 | 115 | 1.7 | 4.3 | 0.00 | 0.00 | 0.00 | 33 | 1008.7 |
| 20260504150732 | 52 | 116 | 0.0 | 0.0 | 0.00 | 0.00 | 0.00 | 53 | 1004.6 |
| 20260504140700 | 45 | 226 | 0.9 | 2.6 | 0.00 | 0.00 | 0.00 | 58 | 1001.9 |
| 20260504130637 | 40 | 180 | 0.0 | 0.0 | 0.00 | 0.00 | 0.00 | 59 | 1000.0 |
| 20260504110505 | 40 | 180 | 0.0 | 1.7 | 0.00 | 0.00 | 0.00 | 57 | 999.6 |
| 20260504100450 | 42 | 180 | 0.9 | 3.5 | 0.00 | 0.00 | 0.00 | 54 | 1000.2 |
| 20260504081409 | 45 | 180 | 0.9 | 3.5 | 0.00 | 0.00 | 0.00 | 44 | 1001.3 |
| 20260504080404 | 46 | 180 | 1.7 | 8.7 | 0.00 | 0.00 | 0.00 | 43 | 1001.9 |
| 20260504070353 | 48 | 180 | 3.5 | 10.4 | 0.00 | 0.00 | 0.00 | 40 | 1002.9 |
| 20260504050322 | 51 | 79 | 4.3 | 7.8 | 0.00 | 0.00 | 0.00 | 36 | 1005.1 |
| 20260504045319 | 52 | 83 | 2.6 | 6.1 | 0.00 | 0.00 | 0.00 | 35 | 1005.5 |
| 20260504043317 | 53 | 77 | 2.6 | 6.1 | 0.00 | 0.00 | 0.00 | 33 | 1006.1 |
| 20260504042314 | 54 | 83 | 3.5 | 6.1 | 0.00 | 0.00 | 0.00 | 32 | 1006.2 |
| 20260504041313 | 54 | 114 | 3.5 | 6.1 | 0.00 | 0.00 | 0.00 | 31 | 1006.3 |
| 20260504040310 | 54 | 86 | 2.6 | 5.2 | 0.00 | 0.00 | 0.00 | 29 | 1006.3 |
| 20260504034310 | 55 | 93 | 2.6 | 4.3 | 0.00 | 0.00 | 0.00 | 29 | 1006.5 |
| 20260504033307 | 55 | 79 | 1.7 | 4.3 | 0.00 | 0.00 | 0.00 | 29 | 1006.4 |
| 20260504031306 | 54 | 80 | 1.7 | 3.5 | 0.00 | 0.00 | 0.00 | 36 | 1005.9 |
| 20260504030303 | 55 | 106 | 0.9 | 3.5 | 0.00 | 0.00 | 0.00 | 32 | 1006.5 |
| 20260504024303 | 57 | 51 | 0.0 | 0.0 | 0.00 | 0.00 | 0.00 | 28 | 1007.0 |
| 20260504021258 | 58 | 109 | 0.0 | 0.0 | 0.00 | 0.00 | 0.00 | 36 | 1007.8 |
| 20260504020258 | 59 | 137 | 0.0 | 0.0 | 0.00 | 0.00 | 0.00 | 31 | 1007.9 |
| 20260504015244 | 60 | 217 | 0.0 | 0.0 | 0.00 | 0.00 | 0.00 | 33 | 1008.2 |
| 20260504014239 | 61 | 216 | 0.0 | 0.0 | 0.00 | 0.00 | 0.00 | 31 | 1008.7 |
| 20260504013231 | 62 | 216 | 0.0 | 0.0 | 0.00 | 0.00 | 0.00 | 32 | 1009.3 |
| 20260504011227 | 64 | 216 | 0.9 | 1.7 | 0.00 | 0.00 | 0.00 | 29 | 1010.2 |